.
WxDataArchive / Data Records for 2011-03-13
2011-03-12 March 2011 2011-03-14

Data Records for Sunday, 13 March 2011

Time	Temp	Chill	HIndex	Humid	Dewpt	 Wind 	HiWind	WindDir	Rain 	Barom 
-----	----	-----	------	-----	-----	------	------	-------	-----	----- 
00:00	35.0	35.0	35.0	73	27.2	3	5	292	0.00	30.065 
00:05	35.0	35.0	35.0	73	27.2	3	7	292	0.00	30.065 
00:10	34.9	34.9	34.9	73	27.1	3	6	270	0.00	30.065 
00:15	34.9	34.9	34.9	73	27.1	3	5	248	0.00	30.072 
00:20	34.9	34.9	34.9	73	27.1	3	6	270	0.00	30.072 
00:25	34.9	34.9	34.9	73	27.1	3	5	270	0.00	30.072 
00:30	34.9	34.9	34.9	73	27.1	3	6	270	0.00	30.070 
00:35	34.7	34.7	34.7	73	26.9	3	5	338	0.00	30.070 
00:40	34.7	34.7	34.7	73	26.9	2	5	248	0.00	30.070 
00:45	34.7	34.7	34.7	74	27.3	1	4	248	0.00	30.073 
00:50	34.7	34.7	34.7	74	27.3	2	4	248	0.00	30.073 
00:55	34.7	34.7	34.7	74	27.3	2	4	292	0.00	30.073 
01:00	34.7	34.7	34.7	74	27.3	2	3	248	0.00	30.078 
01:05	34.7	34.7	34.7	74	27.3	1	3	248	0.00	30.078 
01:10	34.7	34.7	34.7	74	27.3	2	3	248	0.00	30.078 
01:15	34.7	34.7	34.7	74	27.3	2	4	248	0.00	30.088 
01:20	34.7	34.7	34.7	74	27.3	2	4	270	0.00	30.088 
01:25	34.7	34.7	34.7	75	27.6	1	3	338	0.00	30.088 
01:30	34.7	34.7	34.7	74	27.3	2	5	292	0.00	30.091 
01:35	34.7	34.7	34.7	74	27.3	1	4	292	0.00	30.091 
01:40	34.7	34.7	34.7	74	27.3	1	3	315	0.00	30.091 
01:45	34.7	34.7	34.7	74	27.3	2	4	248	0.00	30.094 
01:50	34.6	34.6	34.6	74	27.2	2	4	338	0.00	30.094 
01:55	34.6	34.6	34.6	74	27.2	2	5	315	0.00	30.094 
03:00	34.6	34.6	34.6	73	26.9	2	5	338	0.00	30.100 
03:05	34.6	34.6	34.6	73	26.9	2	5	292	0.00	30.100 
03:10	34.6	34.6	34.6	73	26.9	1	3	270	0.00	30.100 
03:15	34.6	34.6	34.6	73	26.9	1	3	338	0.00	30.106 
03:20	34.6	34.6	34.6	73	26.9	1	3	225	0.00	30.106 
03:25	34.6	34.6	34.6	73	26.9	0	2	0	0.00	30.106 
03:30	34.4	34.4	34.4	74	27.0	1	3	0	0.00	30.111 
03:35	34.4	34.4	34.4	73	26.7	2	4	338	0.00	30.111 
03:40	34.4	34.4	34.4	73	26.7	1	4	248	0.00	30.111 
03:45	34.4	34.4	34.4	74	27.0	1	4	248	0.00	30.119 
03:50	34.3	34.3	34.3	73	26.6	1	2	338	0.00	30.119 
03:55	34.3	34.3	34.3	73	26.6	1	3	270	0.00	30.119 
04:00	34.3	34.3	34.3	74	26.9	0	2	270	0.00	30.122 
04:05	34.3	34.3	34.3	74	26.9	1	3	338	0.00	30.122 
04:10	34.1	34.1	34.1	73	26.4	1	4	270	0.00	30.122 
04:15	34.1	34.1	34.1	73	26.4	1	4	270	0.00	30.121 
04:20	34.1	34.1	34.1	73	26.4	0	1	292	0.00	30.121 
04:25	34.0	34.0	34.0	74	26.6	1	3	292	0.00	30.121 
04:30	34.0	34.0	34.0	74	26.6	1	2	338	0.00	30.124 
04:35	34.0	34.0	34.0	74	26.6	2	4	315	0.00	30.124 
04:40	33.8	33.8	33.8	75	26.7	2	5	0	0.00	30.124 
04:45	33.7	33.7	33.7	75	26.6	2	5	270	0.00	30.126 
04:50	33.7	33.7	33.7	75	26.6	2	5	248	0.00	30.126 
04:55	33.5	33.5	33.5	75	26.4	2	4	270	0.00	30.126 
05:00	33.5	33.5	33.5	76	26.8	1	2	248	0.00	30.127 
05:05	33.5	33.5	33.5	76	26.8	1	3	248	0.00	30.127 
05:10	33.4	33.4	33.4	76	26.7	2	4	248	0.00	30.127 
05:15	33.4	33.4	33.4	76	26.7	1	3	248	0.00	30.137 
05:20	33.4	33.4	33.4	76	26.7	1	3	248	0.00	30.137 
05:25	33.4	33.4	33.4	75	26.3	1	2	248	0.00	30.137 
05:30	33.4	33.4	33.4	75	26.3	1	4	292	0.00	30.139 
05:35	33.4	33.4	33.4	75	26.3	2	3	292	0.00	30.139 
05:40	33.4	33.4	33.4	75	26.3	1	3	292	0.00	30.139 
05:45	33.4	33.4	33.4	76	26.7	1	3	292	0.00	30.146 
05:50	33.2	33.2	33.2	76	26.5	1	3	315	0.00	30.146 
05:55	33.2	33.2	33.2	76	26.5	1	4	292	0.00	30.146 
06:00	33.2	33.2	33.2	76	26.5	2	4	270	0.00	30.155 
06:05	33.1	33.1	33.1	76	26.4	1	2	270	0.00	30.155 
06:10	33.1	33.1	33.1	76	26.4	1	3	315	0.00	30.155 
06:15	33.1	33.1	33.1	77	26.7	1	3	315	0.00	30.168 
06:20	33.1	33.1	33.1	77	26.7	1	3	315	0.00	30.168 
06:25	33.1	33.1	33.1	77	26.7	1	2	315	0.00	30.168 
06:30	32.9	32.9	32.9	77	26.5	1	3	270	0.00	30.178 
06:35	32.9	32.9	32.9	77	26.5	1	3	270	0.00	30.178 
06:40	32.9	32.9	32.9	77	26.5	1	3	270	0.00	30.178 
06:45	32.9	32.9	32.9	77	26.5	1	3	270	0.00	30.185 
06:50	32.9	32.9	32.9	77	26.5	1	2	248	0.00	30.185 
06:55	32.8	32.8	32.8	77	26.4	1	3	248	0.00	30.185 
07:00	32.8	32.8	32.8	77	26.4	1	2	248	0.00	30.189 
07:05	32.8	32.8	32.8	77	26.4	1	3	248	0.00	30.189 
07:10	32.8	32.8	32.8	77	26.4	1	2	248	0.00	30.189 
07:15	32.7	32.7	32.7	77	26.3	1	3	248	0.00	30.201 
07:20	32.7	32.7	32.7	77	26.3	1	3	248	0.00	30.201 
07:25	32.7	32.7	32.7	77	26.3	1	3	248	0.00	30.201 
07:30	32.7	32.7	32.7	78	26.6	1	2	248	0.00	30.203 
07:35	32.7	32.7	32.7	78	26.6	1	2	248	0.00	30.203 
07:40	32.7	32.7	32.7	78	26.6	1	3	248	0.00	30.203 
07:45	32.7	32.7	32.7	78	26.6	1	2	248	0.00	30.207 
07:50	32.5	32.5	32.5	78	26.4	1	3	248	0.00	30.207 
07:55	32.5	32.5	32.5	78	26.4	1	3	248	0.00	30.207 
08:00	32.5	32.5	32.5	78	26.4	1	3	248	0.00	30.216 
08:05	32.5	32.5	32.5	78	26.4	1	2	248	0.00	30.216 
08:10	32.5	32.5	32.5	78	26.4	1	3	248	0.00	30.216 
08:15	32.5	32.5	32.5	78	26.4	1	2	248	0.00	30.223 
08:20	32.5	32.5	32.5	78	26.4	1	3	248	0.00	30.223 
08:25	32.5	32.5	32.5	78	26.4	1	3	248	0.00	30.223 
08:30	32.5	32.5	32.5	78	26.4	1	2	248	0.00	30.230 
08:35	32.5	32.5	32.5	78	26.4	1	3	248	0.00	30.230 
08:40	32.5	32.5	32.5	78	26.4	1	3	248	0.00	30.230 
08:45	32.7	32.7	32.7	78	26.6	1	2	338	0.00	30.237 
08:50	32.7	32.7	32.7	78	26.6	1	3	315	0.00	30.237 
08:55	32.7	32.7	32.7	78	26.6	1	3	248	0.00	30.237 
09:00	32.8	32.8	32.8	79	27.0	0	2	248	0.00	30.246 
09:05	32.8	32.8	32.8	79	27.0	1	3	315	0.00	30.246 
09:10	32.8	32.8	32.8	78	26.7	1	4	315	0.00	30.246 
09:15	32.8	32.8	32.8	78	26.7	1	3	292	0.00	30.254 
09:20	32.9	32.9	32.9	78	26.8	1	3	292	0.00	30.254 
09:25	32.9	32.9	32.9	78	26.8	1	4	248	0.00	30.254 
09:30	32.9	32.9	32.9	78	26.8	1	3	248	0.00	30.258 
09:35	32.9	32.9	32.9	78	26.8	1	3	248	0.00	30.258 
09:40	33.1	33.1	33.1	78	27.0	1	3	315	0.00	30.258 
09:45	33.1	33.1	33.1	78	27.0	1	3	248	0.00	30.268 
09:50	33.1	33.1	33.1	78	27.0	2	3	248	0.00	30.268 
09:55	33.1	33.1	33.1	78	27.0	1	3	270	0.00	30.268 
10:00	33.2	33.2	33.2	79	27.4	1	2	270	0.00	30.273 
10:05	33.4	33.4	33.4	78	27.3	1	3	270	0.00	30.273 
10:10	33.4	33.4	33.4	78	27.3	1	3	315	0.00	30.273 
10:15	33.4	33.4	33.4	78	27.3	1	3	315	0.00	30.282 
10:20	33.4	33.4	33.4	78	27.3	1	4	315	0.00	30.282 
10:25	33.4	33.4	33.4	78	27.3	1	3	338	0.00	30.282 
10:30	33.5	33.5	33.5	78	27.4	0	2	338	0.00	30.286 
10:35	33.5	33.5	33.5	78	27.4	1	2	338	0.00	30.286 
10:40	33.5	33.5	33.5	78	27.4	1	2	338	0.00	30.286 
10:45	33.7	33.7	33.7	78	27.6	1	2	338	0.00	30.292 
10:50	33.7	33.7	33.7	78	27.6	1	3	338	0.00	30.292 
10:55	33.8	33.8	33.8	78	27.7	1	2	338	0.00	30.292 
11:00	33.8	33.8	33.8	78	27.7	1	4	338	0.00	30.300 
11:05	34.0	34.0	34.0	78	27.9	1	3	270	0.00	30.300 
11:10	34.0	34.0	34.0	77	27.6	1	3	315	0.00	30.300 
11:15	34.3	34.3	34.3	78	28.2	1	3	315	0.00	30.301 
11:20	34.3	34.3	34.3	77	27.9	2	3	248	0.00	30.301 
11:25	34.4	34.4	34.4	77	27.9	1	2	248	0.00	30.301 
11:30	34.6	34.6	34.6	77	28.1	0	2	248	0.00	30.304 
11:35	34.7	34.7	34.7	77	28.2	1	3	270	0.00	30.304 
11:40	34.7	34.7	34.7	75	27.6	1	3	315	0.00	30.304 
11:45	34.9	34.9	34.9	75	27.8	1	3	0	0.00	30.306 
11:50	35.0	35.0	35.0	76	28.2	1	2	0	0.00	30.306 
11:55	35.3	35.3	35.3	75	28.2	1	2	0	0.00	30.306 
12:00	35.5	35.5	35.5	75	28.4	1	2	338	0.00	30.305 
12:05	35.8	35.8	35.8	75	28.7	1	3	338	0.00	30.305 
12:10	35.9	35.9	35.9	75	28.8	1	3	292	0.00	30.305 
12:15	36.0	36.0	36.0	74	28.5	1	3	292	0.00	30.309 
12:20	36.2	36.2	36.2	73	28.4	2	5	270	0.00	30.309 
12:25	36.2	36.2	36.2	72	28.1	1	4	315	0.00	30.309 
12:30	36.2	36.2	36.2	72	28.1	1	3	270	0.00	30.311 
12:35	36.3	36.3	36.3	73	28.5	1	3	270	0.00	30.311 
12:40	36.6	36.6	36.6	72	28.4	1	3	315	0.00	30.311 
12:45	36.9	36.9	36.9	72	28.7	1	4	315	0.00	30.307 
12:50	37.0	37.0	37.0	72	28.8	1	3	248	0.00	30.307 
12:55	37.3	37.3	37.3	71	28.8	1	3	248	0.00	30.307 
13:00	37.6	37.6	37.6	70	28.7	2	3	248	0.00	30.306 
13:05	37.9	37.9	37.9	71	29.4	1	3	270	0.00	30.306 
13:10	38.2	38.2	38.2	69	28.9	2	4	248	0.00	30.306 
13:15	38.5	38.5	38.5	69	29.2	2	5	248	0.00	30.306 
13:20	38.6	38.6	38.6	68	29.0	1	3	248	0.00	30.306 
13:25	38.9	38.9	38.9	68	29.3	2	5	248	0.00	30.306 
13:30	39.1	39.1	39.1	67	29.1	2	5	248	0.00	30.308 
13:35	39.2	39.2	39.2	66	28.8	1	3	270	0.00	30.308 
13:40	39.3	39.3	39.3	66	28.9	2	4	248	0.00	30.308 
13:45	39.9	39.9	39.9	66	29.5	1	3	248	0.00	30.306 
13:50	40.6	40.6	40.6	66	30.1	2	5	270	0.00	30.306 
13:55	41.1	41.1	41.1	63	29.5	1	4	338	0.00	30.306 
14:00	40.6	40.6	40.6	63	29.0	1	4	338	0.00	30.304 
14:05	40.5	40.5	40.5	64	29.3	1	5	338	0.00	30.304 
14:10	40.2	40.2	40.2	64	29.0	2	5	338	0.00	30.304 
14:15	40.5	40.5	40.5	64	29.3	1	5	315	0.00	30.308 
14:20	40.8	40.8	40.8	62	28.8	2	9	338	0.00	30.308 
14:25	40.6	40.6	40.6	64	29.4	2	9	338	0.00	30.308 
14:30	41.5	41.5	41.5	65	30.6	1	3	315	0.00	30.302 
14:35	41.8	41.8	41.8	62	29.7	2	6	338	0.00	30.302 
14:40	41.9	41.9	41.9	62	29.8	1	3	338	0.00	30.302 
14:45	42.1	42.1	42.1	61	29.6	2	4	315	0.00	30.302 
14:50	42.8	42.8	42.8	60	29.9	2	5	338	0.00	30.302 
14:55	42.3	42.3	42.3	59	29.0	2	5	270	0.00	30.302 
15:00	42.3	42.3	42.3	60	29.4	2	4	270	0.00	30.305 
15:05	42.3	42.3	42.3	60	29.4	2	5	248	0.00	30.305 
15:10	42.2	42.2	42.2	58	28.5	2	5	338	0.00	30.305 
15:15	41.6	41.6	41.6	60	28.8	1	4	292	0.00	30.311 
15:20	41.3	41.3	41.3	61	28.9	2	4	248	0.00	30.311 
15:25	41.9	41.9	41.9	61	29.4	2	4	270	0.00	30.311 
15:30	42.2	42.2	42.2	59	28.9	1	4	248	0.00	30.312 
15:35	41.6	41.6	41.6	59	28.3	2	6	315	0.00	30.312 
15:40	40.9	40.9	40.9	60	28.1	1	4	292	0.00	30.312 
15:45	40.5	40.5	40.5	62	28.5	2	6	338	0.00	30.317 
15:50	40.1	40.1	40.1	62	28.1	2	3	338	0.00	30.317 
15:55	40.1	40.1	40.1	63	28.5	1	4	0	0.00	30.317 
16:00	40.1	40.1	40.1	63	28.5	2	4	315	0.00	30.325 
16:05	40.2	40.2	40.2	63	28.6	1	4	315	0.00	30.325 
16:10	40.3	40.3	40.3	63	28.7	1	6	315	0.00	30.325 
16:15	40.3	40.3	40.3	63	28.7	2	5	270	0.00	30.328 
16:20	40.5	40.5	40.5	62	28.5	2	5	270	0.00	30.328 
16:25	40.5	40.5	40.5	62	28.5	2	7	292	0.00	30.328 
16:30	40.2	40.2	40.2	62	28.2	2	4	315	0.00	30.328 
16:35	39.9	39.9	39.9	63	28.3	1	5	315	0.00	30.328 
16:40	40.1	40.1	40.1	63	28.5	1	3	338	0.00	30.328 
16:45	40.1	40.1	40.1	64	28.9	1	3	338	0.00	30.329 
16:50	39.6	39.6	39.6	63	28.1	1	5	315	0.00	30.329 
16:55	39.3	39.3	39.3	63	27.8	2	5	292	0.00	30.329 
17:00	39.3	39.3	39.3	64	28.2	1	3	315	0.00	30.343 
17:05	39.5	39.5	39.5	63	28.0	1	4	315	0.00	30.343 
17:10	39.3	39.3	39.3	64	28.2	2	6	338	0.00	30.343 
17:15	38.9	38.9	38.9	64	27.8	1	6	315	0.00	30.347 
17:20	38.9	38.9	38.9	64	27.8	1	4	270	0.00	30.347 
17:25	38.8	38.8	38.8	63	27.3	1	6	338	0.00	30.347 
17:30	38.9	38.9	38.9	63	27.4	1	3	338	0.00	30.347 
17:35	39.1	39.1	39.1	61	26.8	1	3	270	0.00	30.347 
17:40	39.1	39.1	39.1	60	26.4	1	3	270	0.00	30.347 
17:45	39.2	39.2	39.2	61	26.9	0	2	315	0.00	30.348 
17:50	39.1	39.1	39.1	61	26.8	1	4	0	0.00	30.348 
17:55	39.1	39.1	39.1	62	27.2	1	3	0	0.00	30.348 
18:00	38.9	38.9	38.9	62	27.0	1	4	338	0.00	30.360 
18:05	38.9	38.9	38.9	62	27.0	1	3	315	0.00	30.360 
18:10	38.8	38.8	38.8	62	26.9	1	3	315	0.00	30.360 
18:15	38.6	38.6	38.6	63	27.1	1	3	315	0.00	30.362 
18:20	38.6	38.6	38.6	63	27.1	1	3	315	0.00	30.362 
18:25	38.5	38.5	38.5	64	27.4	1	3	315	0.00	30.362 
18:30	38.5	38.5	38.5	64	27.4	1	2	248	0.00	30.362 
18:35	38.6	38.6	38.6	64	27.5	1	4	248	0.00	30.362 
18:40	38.5	38.5	38.5	63	27.0	1	5	248	0.00	30.362 
18:45	38.3	38.3	38.3	63	26.8	1	2	338	0.00	30.365 
18:50	38.3	38.3	38.3	63	26.8	1	5	248	0.00	30.365 
18:55	38.3	38.3	38.3	63	26.8	1	2	248	0.00	30.365 
19:00	38.3	38.3	38.3	64	27.2	0	1	248	0.00	30.368 
19:05	38.3	38.3	38.3	64	27.2	1	3	248	0.00	30.368 
19:10	38.2	38.2	38.2	64	27.1	1	3	248	0.00	30.368 
19:15	38.2	38.2	38.2	65	27.5	0	3	248	0.00	30.368 
19:20	38.2	38.2	38.2	65	27.5	1	3	248	0.00	30.368 
19:25	38.0	38.0	38.0	66	27.7	1	7	315	0.00	30.368 
19:30	37.8	37.8	37.8	66	27.5	2	5	248	0.00	30.373 
19:35	37.8	37.8	37.8	67	27.8	1	2	338	0.00	30.373 
19:40	37.6	37.6	37.6	68	28.0	1	3	270	0.00	30.373 
19:45	37.5	37.5	37.5	67	27.6	1	4	315	0.00	30.381 
19:50	37.3	37.3	37.3	66	27.0	1	2	338	0.00	30.381 
19:55	37.2	37.2	37.2	65	26.5	1	3	338	0.00	30.381 
20:00	37.2	37.2	37.2	65	26.5	1	3	315	0.00	30.383 
20:05	37.2	37.2	37.2	65	26.5	1	2	292	0.00	30.383 
20:10	37.0	37.0	37.0	65	26.3	1	4	292	0.00	30.383 
20:15	37.0	37.0	37.0	65	26.3	1	3	315	0.00	30.388 
20:20	37.0	37.0	37.0	65	26.3	1	3	315	0.00	30.388 
20:25	37.0	37.0	37.0	65	26.3	1	3	315	0.00	30.388 
20:30	37.0	37.0	37.0	65	26.3	1	3	315	0.00	30.386 
20:35	37.0	37.0	37.0	66	26.7	0	2	315	0.00	30.386 
20:40	36.9	36.9	36.9	66	26.6	1	3	315	0.00	30.386 
20:45	36.9	36.9	36.9	66	26.6	1	3	315	0.00	30.392 
20:50	36.9	36.9	36.9	67	27.0	1	3	315	0.00	30.392 
20:55	36.9	36.9	36.9	67	27.0	0	3	315	0.00	30.392 
21:00	36.9	36.9	36.9	67	27.0	0	2	315	0.00	30.389 
21:05	36.8	36.8	36.8	66	26.5	0	2	315	0.00	30.389 
21:10	36.8	36.8	36.8	67	26.9	0	2	315	0.00	30.389 
21:15	36.8	36.8	36.8	67	26.9	0	4	248	0.00	30.389 
21:20	36.8	36.8	36.8	67	26.9	1	4	270	0.00	30.389 
21:25	36.8	36.8	36.8	68	27.2	1	3	270	0.00	30.389 
21:30	36.6	36.6	36.6	68	27.1	1	3	270	0.00	30.393 
21:35	36.6	36.6	36.6	68	27.1	0	3	22	0.00	30.393 
21:40	36.6	36.6	36.6	69	27.4	0	3	315	0.00	30.393 
21:45	36.5	36.5	36.5	69	27.3	0	2	315	0.00	30.397 
21:50	36.5	36.5	36.5	69	27.3	0	2	315	0.00	30.397 
21:55	36.5	36.5	36.5	69	27.3	0	2	315	0.00	30.397 
22:00	36.5	36.5	36.5	69	27.3	0	2	315	0.00	30.397 
22:05	36.3	36.3	36.3	69	27.1	0	2	315	0.00	30.397 
22:10	36.3	36.3	36.3	68	26.8	0	2	315	0.00	30.397 
22:15	36.3	36.3	36.3	68	26.8	0	1	315	0.00	30.396 
22:20	36.2	36.2	36.2	68	26.7	0	3	315	0.00	30.396 
22:25	36.2	36.2	36.2	68	26.7	0	1	315	0.00	30.396 
22:30	36.2	36.2	36.2	68	26.7	0	1	315	0.00	30.397 
22:35	36.0	36.0	36.0	68	26.5	0	1	315	0.00	30.397 
22:40	36.0	36.0	36.0	68	26.5	0	1	315	0.00	30.397 
22:45	35.9	35.9	35.9	68	26.4	0	1	315	0.00	30.398 
22:50	35.9	35.9	35.9	68	26.4	0	0	---	0.00	30.398 
22:55	35.9	35.9	35.9	67	26.0	0	1	315	0.00	30.398 
23:00	35.8	35.8	35.8	67	25.9	0	2	315	0.00	30.398 
23:05	35.8	35.8	35.8	67	25.9	0	1	315	0.00	30.398 
23:10	35.8	35.8	35.8	67	25.9	0	2	315	0.00	30.398 
23:15	35.6	35.6	35.6	67	25.7	0	3	315	0.00	30.402 
23:20	35.6	35.6	35.6	66	25.4	1	4	270	0.00	30.402 
23:25	35.6	35.6	35.6	66	25.4	0	2	270	0.00	30.402 
23:30	35.6	35.6	35.6	66	25.4	0	2	270	0.00	30.412 
23:35	35.6	35.6	35.6	66	25.4	0	2	270	0.00	30.412 
23:40	35.5	35.5	35.5	67	25.6	1	3	270	0.00	30.412 
23:45	35.5	35.5	35.5	67	25.6	0	3	270	0.00	30.409 
23:50	35.2	35.2	35.2	68	25.7	0	2	270	0.00	30.409 
23:55	35.0	35.0	35.0	68	25.5	0	2	270	0.00	30.409 
20110314 00:00	35.0	35.0	35.0	68	25.5	0	2	270	0.00	30.407 
20110314 00:05	34.9	34.9	34.9	69	25.8	0	2	270	0.00	30.407 
20110314 00:10	34.7	34.7	34.7	69	25.6	0	2	270	0.00	30.407 
20110314 00:15	34.7	34.7	34.7	70	25.9	0	2	270	0.00	30.408 
20110314 00:20	34.6	34.6	34.6	70	25.8	0	2	270	0.00	30.408 
20110314 00:25	34.6	34.6	34.6	70	25.8	0	1	270	0.00	30.408 
20110314 00:30	34.4	34.4	34.4	70	25.6	0	3	270	0.00	30.409 
20110314 00:35	34.4	34.4	34.4	70	25.6	0	0	---	0.00	30.409 
20110314 00:40	34.1	34.1	34.1	71	25.7	0	2	270	0.00	30.409 
20110314 00:45	34.0	34.0	34.0	71	25.6	0	2	270	0.00	30.406 
20110314 00:50	33.7	33.7	33.7	71	25.3	0	1	270	0.00	30.406 
20110314 00:55	33.5	33.5	33.5	70	24.8	0	1	270	0.00	30.406 

CoCoRaHS
IN-AL-39
A2 Web Hosting
Creative Commons License
GoDaddy
search engine by freefind advanced

loaded 2018-11-20 06:16:16 • last modified 2010-11-18 10:43:29
Privacy PolicyDisclaimer
• wx.awcolley.com is powered by PmWiki v.2002016 •
• all content (unless otherwise noted) © 2018 A W Colley